Location: Audinghen
(50.8518°N, 1.6129°E)
Time: 10:27:49
(UTC+00:00)

PSLV R/B - Pass Details

Date: 07 August 2020
Orbit: 598 x 701 km, 97.9° (Epoch: 20 September)

Event Time Altitude Azimuth Distance (km) Brightness Sun altitude
Rises 00:40:42 0° 12° (NNE) 3,014 8.6 -22.2°
Reaches altitude 10° 00:42:55 10° 10° (N) 2,111 7.4 -22.1°
Maximum altitude 00:47:31 71° 288° (WNW) 726 3.8 -22.0°
Enters shadow 00:48:27 54° 227° (SW) 832 3.8 -22.0°
